Wind_Speed
21 21 22 23 22 20 18 17 15 14 14 16 17 18 18 17 17 16 15 15 14 15 15 14 14 12 11 10 10 11 11 10 9 9 8 8 9 10 10 10 10 10 9 9 10 10 12 13 12 11 10 11 13 12 11 9 8 8 9 9 10 10
22 22 23 24 23 21 19 17 16 15 16 17 18 18 18 17 18 17 16 15 15 15 16 15 14 13 11 11 11 11 11 10 9 9 8 8 8 9 10 9 9 9 9 8 9 10 12 13 12 11 11 12 13 13 12 10 8 8 8 9 9 9
24 23 24 25 24 22 20 18 17 16 18 18 19 18 18 18 17 17 16 15 15 15 15 15 13 12 11 12 12 11 11 11 11 11 10 9 8 8 9 9 9 8 8 7 7 9 11 13 12 11 11 13 14 13 12 10 8 8 8 8 9 8
25 26 25 26 25 23 21 19 18 18 20 20 19 18 17 17 17 17 17 16 15 15 15 14 12 12 13 15 15 13 12 12 12 11 9 8 8 9 9 9 9 8 7 6 6 8 10 12 13 11 12 13 14 13 12 10 8 8 8 8 9 8
26 27 27 27 26 24 22 21 19 19 20 21 19 18 17 17 17 17 17 16 15 15 15 14 13 13 15 16 16 14 13 13 12 11 8 9 10 10 9 9 9 9 7 6 5 6 9 10 12 12 11 13 13 12 12 10 9 8 8 8 9 8
27 27 28 28 27 25 23 22 20 19 20 20 19 18 18 18 18 17 17 17 16 16 15 14 14 14 15 15 16 14 12 12 12 12 10 9 11 10 9 9 9 9 8 8 7 7 8 9 12 12 11 11 12 12 12 10 9 9 9 9 9 8
27 27 27 27 26 25 24 23 21 20 19 20 19 18 19 19 18 18 18 17 16 16 15 15 14 14 14 14 15 14 12 12 12 12 10 9 10 9 9 10 9 8 8 8 8 8 9 9 11 12 10 10 12 13 12 11 10 9 9 9 9 7
26 26 26 26 25 25 24 22 21 21 19 18 17 18 19 19 19 18 18 17 16 16 15 15 14 15 14 13 13 13 12 11 11 10 9 9 8 6 8 9 8 8 7 7 7 8 9 10 10 10 9 10 12 13 13 12 11 10 10 9 9 8
25 25 25 25 25 24 23 22 22 21 19 17 16 16 18 20 20 19 18 16 15 15 15 14 15 15 14 13 13 12 12 10 10 9 8 8 6 4 7 9 7 6 6 6 6 7 7 8 9 9 9 10 12 13 13 13 12 11 11 10 10 9
27 26 25 24 24 23 22 22 22 21 18 16 15 15 18 20 20 19 18 16 14 14 14 13 14 15 14 13 13 12 11 9 9 8 7 5 4 4 6 8 7 6 6 6 6 6 6 7 8 8 8 10 11 11 13 13 12 12 12 11 10 10
28 26 25 24 24 23 22 22 21 20 17 15 14 15 18 19 20 19 18 16 14 13 13 12 13 13 14 12 12 11 9 8 7 6 5 3 3 4 6 7 7 7 6 6 6 6 6 6 6 7 7 9 10 10 12 12 12 12 12 11 11 11
26 25 26 25 25 23 23 22 20 18 15 14 14 15 18 18 19 19 17 15 13 13 12 11 11 11 11 11 10 9 8 7 5 4 3 3 3 4 6 7 7 8 7 6 7 7 7 6 6 7 7 8 9 10 11 12 13 13 13 12 12 11
25 24 25 25 24 23 23 21 19 17 14 14 14 14 18 18 19 18 15 14 13 12 12 10 9 9 9 9 7 6 6 6 4 3 2 3 4 4 5 6 7 8 7 7 7 7 7 7 7 8 8 8 9 10 12 14 14 15 14 13 13 11
25 24 24 23 22 22 21 20 18 16 13 13 13 14 18 18 18 17 14 13 13 12 11 9 8 8 7 6 5 4 4 4 3 3 3 3 4 4 4 5 7 8 8 8 7 8 8 8 9 8 8 8 9 11 13 15 15 15 14 14 13 11
24 24 23 22 21 21 20 18 17 15 13 12 13 14 18 18 17 16 14 13 12 11 10 9 7 6 6 5 4 3 3 3 3 3 3 4 4 5 5 6 7 9 9 8 8 9 8 8 8 8 8 8 8 9 11 14 15 16 15 14 13 11
22 22 23 21 20 20 18 17 16 14 12 12 13 15 17 18 17 16 14 13 12 11 10 8 7 6 5 5 4 3 2 3 3 4 4 5 6 6 7 7 8 8 9 9 9 9 8 8 8 8 7 7 7 8 9 11 14 15 14 13 13 13
20 22 21 20 19 18 16 14 13 12 12 12 13 16 18 18 17 16 14 12 11 10 9 8 6 5 5 4 4 3 3 3 4 5 6 7 8 7 8 8 8 8 8 10 10 10 9 8 9 8 7 6 5 6 7 8 10 12 13 14 14 14
20 21 20 19 18 16 14 12 11 11 12 13 15 17 18 18 17 15 13 11 10 9 8 7 6 5 5 4 4 4 4 4 5 6 7 8 8 8 8 8 9 9 8 10 11 11 10 10 10 10 9 8 6 5 4 5 7 9 11 13 12 12
19 20 19 18 16 14 13 12 12 12 13 14 16 17 17 16 15 13 11 10 9 8 7 6 5 5 5 5 5 5 5 6 7 8 8 8 9 10 9 9 9 9 9 10 11 12 12 11 11 11 10 10 8 8 7 5 5 7 9 9 8 9
19 19 18 16 15 14 15 14 13 13 15 16 16 16 15 15 14 12 11 10 8 7 6 6 7 7 6 7 7 7 7 7 8 8 8 8 9 10 10 10 9 9 11 11 11 12 13 13 14 14 13 12 10 9 9 7 6 5 7 7 6 7
18 18 17 16 16 16 17 17 16 15 16 17 17 16 15 14 12 11 10 9 8 7 8 8 9 9 8 8 8 8 8 9 9 8 8 8 9 10 11 11 10 10 11 14 13 12 14 16 16 15 13 14 14 12 10 8 7 5 4 4 3 4
18 18 17 16 16 16 17 17 17 17 17 17 17 16 15 13 12 10 9 9 8 9 9 9 9 10 9 9 8 8 9 9 9 8 8 9 10 10 11 11 11 11 12 14 13 14 16 13 11 11 10 11 12 12 12 11 9 7 5 3 2 1
17 18 17 16 16 15 15 14 14 15 16 16 15 13 12 12 11 11 10 10 10 9 9 9 10 11 10 7 7 9 9 9 9 9 9 10 10 10 11 11 11 12 13 14 12 15 15 8 9 13 10 6 4 5 8 10 11 9 6 5 4 2
16 17 16 16 15 14 13 12 12 14 14 14 13 12 11 10 11 11 11 11 10 9 9 9 10 11 9 7 7 9 9 9 9 9 9 10 10 11 11 11 11 12 14 15 14 16 14 7 11 14 7 3 2 2 3 5 8 9 8 8 7 5
16 16 16 16 14 14 15 14 14 14 13 12 13 14 12 12 11 12 12 11 11 10 8 9 10 10 8 7 8 9 9 9 9 9 10 10 10 10 10 10 11 12 14 15 15 17 16 8 11 12 5 4 3 1 3 5 6 7 9 9 8 9
17 17 17 17 15 16 17 16 17 17 15 14 15 15 15 15 14 13 13 12 11 10 8 9 9 10 9 8 9 9 9 9 9 9 9 10 10 9 9 9 10 12 14 14 14 17 17 11 12 12 5 4 2 1 7 8 4 3 7 9 10 12
19 19 19 19 17 17 18 18 19 19 17 16 16 15 15 15 15 14 13 12 11 10 9 10 10 10 11 10 10 9 9 9 8 9 8 9 9 8 9 8 8 11 12 14 14 16 17 13 14 13 6 4 2 1 10 10 5 4 4 6 11 15
20 20 20 19 18 18 18 18 19 19 17 16 17 16 16 15 14 14 13 12 12 12 11 11 11 12 12 11 10 9 9 8 8 8 7 8 9 8 8 8 9 10 11 14 14 14 16 14 15 14 8 5 3 3 9 10 11 11 6 3 8 12
21 22 21 20 19 18 16 15 17 18 18 17 17 17 16 16 15 14 14 14 14 14 13 12 11 11 10 8 8 7 7 6 6 6 5 6 8 8 8 9 10 11 12 14 14 13 15 15 17 16 9 4 5 8 10 10 14 16 10 5 4 6
22 23 21 20 20 19 16 15 17 19 20 19 18 18 16 15 15 15 16 16 14 14 12 11 10 9 8 7 7 7 6 6 5 5 5 6 7 7 8 9 10 11 11 12 13 13 13 14 16 15 10 7 10 13 12 10 14 17 12 8 6 6
22 22 21 19 18 18 16 15 17 19 20 21 20 20 18 17 17 17 18 16 14 13 13 12 11 10 9 8 8 7 6 6 5 5 5 6 7 7 7 8 9 10 11 11 11 11 11 12 14 14 11 10 12 15 12 10 16 19 15 11 8 8
20 21 20 18 18 18 16 15 16 18 20 21 21 21 20 19 19 19 18 16 15 14 14 13 12 11 10 10 9 9 7 6 5 5 6 6 6 6 6 7 8 8 9 9 8 8 9 11 12 13 11 10 13 13 9 12 20 21 19 19 15 10
18 18 17 17 19 19 18 18 19 19 20 20 20 20 19 18 17 18 18 17 17 16 15 14 12 11 10 11 11 10 8 7 6 5 6 5 5 5 6 6 6 6 6 7 7 6 7 9 10 10 10 11 13 9 6 13 19 20 23 25 20 14
18 17 16 17 18 18 18 19 19 19 20 19 19 20 18 16 16 17 17 18 17 17 16 15 13 11 10 11 12 10 8 7 6 6 6 6 6 6 5 5 5 4 4 5 6 7 6 7 8 8 9 11 12 7 7 14 18 21 27 26 23 20
18 16 15 17 17 18 18 18 18 19 20 20 20 19 17 15 15 17 18 19 18 17 16 14 13 12 12 13 13 10 8 7 7 7 7 7 7 6 6 6 6 5 4 5 5 6 6 5 6 7 7 10 10 6 9 15 16 21 26 27 27 29
16 17 16 18 18 19 19 19 19 20 21 21 20 19 16 15 16 17 18 19 18 17 15 13 12 12 13 14 13 11 8 8 7 7 7 6 6 6 6 7 7 6 5 6 6 6 5 5 5 7 7 8 8 7 10 13 16 20 25 26 28 31
14 17 18 19 19 18 18 18 19 20 20 21 20 18 17 18 18 18 18 18 17 16 13 11 11 12 14 15 13 11 9 8 8 7 6 5 6 7 7 7 7 7 7 7 6 6 5 4 5 7 8 8 7 8 10 12 16 21 24 25 27 27
Wind_Direction
164 162 164 164 163 161 158 155 149 151 157 159 153 146 144 142 140 136 134 136 138 139 139 139 136 132 130 129 131 128 126 132 137 141 145 146 149 154 152 146 142 139 138 139 136 131 130 132 135 133 136 148 157 158 155 150 138 129 126 124 122 119
166 166 166 166 165 161 160 158 155 157 155 153 151 150 149 145 142 138 138 140 138 135 133 131 130 131 133 130 127 125 128 133 132 133 138 140 146 155 150 139 133 132 135 142 142 136 133 137 139 134 138 151 159 160 159 157 148 139 134 131 126 119
166 168 168 166 166 164 164 164 163 160 152 153 155 156 155 150 147 144 143 143 137 134 131 128 127 128 127 123 121 122 125 126 125 126 132 136 134 135 134 128 124 121 124 137 146 142 138 141 142 134 134 149 158 160 161 161 156 147 143 138 128 124
169 171 171 168 169 168 168 169 169 163 157 159 160 159 158 154 151 147 146 143 137 134 129 125 124 124 123 122 120 121 123 125 125 123 127 130 122 118 119 120 116 110 108 120 142 146 144 145 145 138 132 143 153 159 162 164 162 155 150 143 130 131
175 176 174 172 172 171 171 173 171 168 164 163 162 160 161 159 155 152 149 143 139 136 132 128 125 125 126 125 123 125 128 127 125 123 125 124 118 114 115 116 112 106 100 100 123 143 149 150 148 144 136 139 149 157 163 167 167 162 156 147 135 138
180 180 177 175 175 172 173 176 173 171 169 164 164 164 165 164 161 158 154 148 144 141 136 130 123 125 129 129 129 129 127 125 124 122 122 118 114 114 116 117 110 106 101 98 109 129 146 154 153 149 142 144 151 158 166 171 173 169 162 152 141 146
182 182 181 178 176 174 175 178 175 173 171 167 167 168 169 168 166 163 159 154 150 144 139 133 129 130 133 135 135 132 128 125 125 121 118 117 114 118 121 116 111 109 103 99 104 114 132 147 154 152 146 149 155 161 169 174 178 175 168 159 150 155
186 184 183 181 178 178 179 179 177 175 173 171 170 170 170 170 169 166 161 157 153 148 142 139 138 138 142 145 140 136 135 131 128 123 120 122 121 128 128 118 114 114 109 104 103 107 119 133 147 152 149 152 158 163 169 175 180 178 175 168 157 162
189 187 187 184 182 185 182 180 178 175 173 171 172 170 171 172 170 168 162 158 158 154 148 146 144 144 147 148 143 139 139 136 131 123 119 123 123 127 128 123 123 126 123 116 110 110 114 121 132 143 150 155 158 163 169 175 181 181 181 174 163 165
193 190 190 187 187 188 183 180 179 175 173 172 173 171 171 174 173 170 164 159 162 161 157 154 149 149 149 147 146 145 143 140 134 124 118 121 116 110 117 123 134 142 140 133 123 117 118 122 124 133 149 157 160 165 170 174 180 184 184 177 167 165
197 193 192 189 189 188 183 182 178 174 175 173 172 173 175 176 172 169 165 163 164 163 162 161 156 155 153 151 151 151 149 142 134 125 119 118 114 105 106 114 132 142 143 143 135 124 127 134 133 138 150 159 163 166 171 176 181 187 187 178 170 167
197 195 194 191 189 185 183 181 175 174 176 172 173 177 179 176 168 166 168 166 164 162 165 165 163 162 157 158 157 153 153 144 134 130 127 127 123 115 107 111 128 134 138 146 142 134 136 145 148 150 155 163 166 168 175 181 186 190 188 180 172 169
197 196 195 192 188 184 182 178 172 175 173 168 175 178 178 176 170 168 169 168 165 165 169 168 167 166 160 162 160 150 150 146 143 148 149 149 142 128 118 121 134 138 140 147 145 140 144 155 159 159 160 165 169 174 182 186 191 192 188 183 176 171
194 194 194 191 187 183 180 175 170 173 169 167 175 177 178 179 172 169 172 172 169 169 172 173 170 167 163 168 169 151 146 146 150 167 169 164 160 147 135 135 145 149 148 148 149 149 157 164 163 163 164 169 175 180 187 190 192 192 190 185 178 174
191 192 192 189 186 181 179 173 168 170 168 171 175 176 179 178 172 172 178 177 173 175 178 180 177 172 171 176 180 164 151 154 159 168 166 165 171 166 154 148 152 155 153 153 156 157 163 164 160 163 166 171 179 182 188 191 192 192 191 184 178 183
189 190 189 187 184 180 179 173 169 171 173 177 177 178 178 176 176 179 183 182 179 181 184 188 185 180 184 187 183 170 156 163 168 160 154 160 167 167 164 158 156 159 158 158 163 162 159 156 149 150 157 166 175 183 188 191 195 194 190 185 187 196
187 187 186 184 181 179 176 170 170 171 173 176 175 176 176 177 182 184 186 189 189 191 193 195 191 186 191 192 181 171 166 165 164 153 148 149 151 157 165 164 157 160 166 165 166 161 149 144 138 133 135 142 151 170 183 191 199 199 193 193 198 201
185 185 185 181 178 176 170 165 165 162 163 167 170 174 178 182 185 185 188 193 196 197 196 192 190 190 189 188 188 185 177 167 163 156 152 149 148 155 164 167 159 159 172 175 170 161 146 137 129 121 113 108 113 128 149 176 191 198 198 198 201 202
180 182 182 178 176 170 161 158 153 149 156 164 170 176 181 184 185 186 187 190 195 196 197 200 201 200 197 194 195 194 181 169 166 160 157 155 155 161 162 163 161 157 165 173 174 161 146 134 120 110 102 95 96 101 104 117 154 180 185 182 185 198
177 180 179 174 169 159 150 149 147 146 156 166 173 177 182 185 185 188 189 189 194 200 210 214 205 200 198 193 192 194 183 171 170 165 163 159 156 163 163 162 164 161 159 161 165 156 147 138 116 101 93 88 84 88 95 103 114 145 166 161 167 192
173 180 178 172 166 157 149 146 147 152 160 167 174 177 179 182 184 186 190 193 198 206 212 208 200 195 190 187 190 191 182 176 173 167 164 156 153 163 167 167 166 164 163 158 157 156 149 140 120 102 92 83 77 74 81 93 96 95 120 139 157 199
169 178 178 175 168 160 158 156 156 160 166 168 173 177 174 174 176 181 189 197 201 204 204 201 196 190 184 184 190 188 181 181 176 164 159 154 157 169 172 173 170 164 164 162 163 164 154 141 124 119 111 92 77 72 72 77 84 76 71 88 86 158
166 175 178 177 172 166 167 165 160 161 168 169 170 173 167 165 171 179 187 192 196 195 192 191 189 184 182 184 190 186 180 182 178 166 162 160 165 177 177 177 177 170 165 162 167 170 163 149 139 134 120 105 82 73 71 67 73 76 80 92 80 68
166 177 179 175 174 170 162 158 155 159 168 169 166 164 161 163 172 179 182 181 181 179 176 178 182 182 182 181 184 182 178 179 176 171 171 170 173 182 184 182 180 178 172 166 169 177 176 163 155 149 123 91 83 81 95 75 71 71 81 97 87 87
167 176 177 173 171 162 153 153 155 156 161 159 157 160 160 163 170 174 173 169 166 166 167 171 178 183 183 180 177 176 178 177 174 175 177 179 180 184 191 190 185 187 185 179 177 183 189 186 172 168 141 118 102 69 156 125 94 69 71 86 87 94
168 174 174 170 167 161 158 159 159 156 156 154 154 162 166 164 165 166 164 160 160 162 161 165 173 178 176 171 167 168 173 173 171 174 176 181 183 188 195 196 194 196 194 193 189 188 195 201 190 185 164 141 98 57 162 144 117 75 78 88 92 95
174 175 171 166 169 169 164 163 164 164 167 167 162 164 170 166 161 159 157 157 161 159 155 158 163 165 163 160 160 160 162 164 166 170 175 179 181 188 195 198 202 201 199 202 200 195 199 205 197 198 209 220 310 74 159 155 148 136 100 86 89 94
174 168 165 166 173 171 165 165 166 168 173 176 170 166 167 165 160 159 158 156 156 153 150 154 156 157 157 158 160 160 162 167 167 168 174 181 180 182 192 201 206 208 209 210 213 210 209 212 205 203 209 229 259 160 155 158 151 137 118 95 91 93
166 162 162 168 173 167 165 168 167 167 168 168 167 164 165 164 162 161 156 153 153 153 153 155 156 158 159 160 161 162 167 175 175 173 176 184 184 183 192 203 208 212 214 215 222 223 219 218 213 209 203 179 161 147 138 138 141 129 114 117 111 99
158 159 163 173 175 164 164 166 165 166 162 159 160 160 162 162 162 160 155 152 154 156 157 159 162 165 165 165 166 165 171 180 186 186 186 194 198 197 201 205 208 214 217 217 222 223 224 223 216 215 214 192 165 149 135 127 134 129 116 107 105 110
156 158 166 177 171 157 159 161 161 165 162 159 160 159 162 162 161 161 157 155 158 160 164 169 172 172 171 172 171 170 174 182 189 188 189 204 212 209 204 200 201 208 212 215 218 220 222 218 212 214 221 219 190 168 158 153 150 143 134 123 114 109
158 158 163 170 163 154 161 167 167 171 169 164 163 163 164 163 162 164 162 160 163 166 171 174 175 174 174 178 178 178 181 183 182 181 186 195 196 189 184 182 186 193 200 204 207 212 209 205 209 210 213 216 193 179 179 169 160 153 144 138 129 119
167 160 158 162 166 165 171 177 177 178 174 168 167 168 167 166 168 169 166 165 167 171 174 175 177 178 178 181 183 182 182 181 173 169 171 164 155 154 157 158 164 173 183 192 196 197 194 196 204 204 203 196 180 177 185 170 163 155 146 138 129 123
172 166 162 161 166 169 175 180 181 182 179 174 173 173 172 170 171 173 171 170 172 176 179 180 180 182 184 184 182 180 179 175 164 157 154 145 136 135 143 146 147 156 162 175 189 191 190 189 189 190 191 186 181 180 174 167 163 156 150 143 135 131
169 167 166 165 165 169 177 181 183 186 185 181 178 175 174 172 173 176 176 176 178 181 185 188 185 185 187 183 179 176 174 166 156 152 145 138 134 134 143 144 138 142 141 142 161 175 182 180 175 179 182 184 187 180 169 169 165 162 159 152 145 139
160 168 175 175 172 174 180 182 184 187 186 183 178 174 173 174 177 180 180 181 182 183 188 190 187 185 181 178 176 172 167 162 159 158 153 146 141 141 146 142 133 132 130 128 134 138 141 145 155 168 173 179 183 168 166 171 168 167 165 158 152 147
148 174 186 185 179 178 181 183 184 186 185 184 181 179 178 177 179 181 182 183 182 181 183 182 183 182 175 173 174 170 164 162 163 164 167 169 161 155 153 143 131 127 125 127 132 126 119 120 130 147 158 164 167 156 158 168 173 173 169 162 157 154
Height
789 791 792 794 795 797 799 800 802 803 804 805 807 809 810 811 812 813 815 815 817 817 819 820 821 822 823 823 824 826 826 827 828 828 830 830 829 830 831 832 832 833 834 834 835 836 837 838 838 839 839 839 839 840 840 841 842 842 843 843 844 844
788 790 791 793 795 797 799 800 802 803 804 806 807 809 810 811 812 813 815 816 817 818 819 820 821 822 823 824 825 826 827 828 828 829 830 831 830 830 831 832 833 833 834 835 835 836 837 838 839 839 839 839 840 841 841 842 843 843 844 844 845 845
788 789 791 793 795 796 798 799 801 803 804 806 807 809 810 811 813 813 815 816 818 819 820 821 822 823 824 824 826 827 828 829 829 830 831 831 831 831 832 833 833 834 834 835 836 837 837 838 839 839 840 840 840 841 842 843 844 845 845 845 846 846
787 789 790 792 794 796 797 799 800 802 804 806 807 809 810 812 813 814 815 817 819 820 821 822 823 824 824 825 826 828 829 830 830 831 832 833 832 832 833 833 833 834 835 836 836 837 838 838 839 840 840 841 841 842 843 844 845 846 846 847 847 848
786 787 789 791 793 795 796 798 799 801 803 805 807 809 811 812 813 814 816 817 819 820 822 823 823 824 825 825 826 828 829 830 830 832 833 834 833 833 834 834 834 834 835 836 837 837 838 839 839 840 841 841 842 843 844 845 846 847 848 848 849 850
785 786 788 790 792 794 796 797 799 800 802 805 807 809 810 812 813 815 816 817 819 820 822 823 824 824 825 826 827 828 830 830 831 832 834 834 834 834 835 835 834 834 835 836 837 838 838 839 840 841 841 842 843 844 845 846 847 848 849 849 850 850
785 787 789 791 792 794 796 797 799 800 802 804 806 808 810 811 813 815 816 817 819 820 822 823 824 825 826 826 827 828 830 831 832 832 834 835 834 836 836 834 834 835 836 837 837 838 839 840 840 841 842 842 843 844 845 846 847 848 849 850 850 851
787 788 790 792 794 795 796 798 799 801 802 804 806 808 810 812 813 815 816 818 819 820 822 823 824 825 826 826 827 829 831 832 832 833 834 835 836 837 836 834 835 835 836 837 838 839 839 840 841 841 842 843 844 844 845 847 848 849 850 850 851 851
788 789 791 793 795 796 797 798 799 801 802 804 806 808 811 812 814 815 817 818 819 821 822 823 824 825 826 826 828 829 831 832 833 834 835 836 837 837 835 834 835 836 837 838 838 840 840 841 841 842 842 843 844 844 845 846 848 849 850 850 851 852
787 789 791 793 795 796 798 799 799 801 802 804 806 809 811 813 814 815 817 818 819 821 822 823 824 825 826 827 828 830 831 832 833 834 835 836 837 837 835 834 835 836 837 838 839 840 840 841 841 842 842 843 844 844 845 846 848 849 849 850 851 852
787 789 791 793 794 796 798 799 799 801 802 804 806 809 811 812 814 816 817 818 819 821 823 824 825 826 827 827 829 830 831 832 833 834 835 836 837 837 835 834 835 836 837 839 840 840 841 841 842 842 843 843 844 845 846 847 848 849 849 850 851 853
788 790 792 793 794 796 797 799 800 800 802 804 806 808 810 813 814 816 817 818 819 821 823 824 825 826 827 828 830 831 831 832 834 834 835 836 836 836 835 835 836 837 838 839 840 841 841 842 842 842 843 844 844 845 846 847 848 849 850 851 852 854
790 792 793 794 795 796 797 798 799 801 802 804 806 808 810 813 815 816 817 818 820 821 823 824 825 827 828 829 830 831 832 832 834 835 835 836 836 836 835 836 837 838 839 840 841 841 841 842 842 842 843 844 845 846 846 847 848 849 851 852 853 855
791 792 794 795 796 797 798 799 800 801 803 804 806 808 810 813 815 816 818 819 820 821 823 824 825 827 827 829 830 831 832 833 834 835 835 836 835 835 836 836 837 839 840 841 841 841 842 842 842 843 844 844 845 845 846 847 848 850 852 853 855 856
790 792 794 796 797 798 798 799 800 802 803 805 806 808 811 813 815 817 818 819 820 822 823 825 825 826 827 828 830 831 832 833 834 835 835 835 835 836 836 837 838 840 840 841 841 841 842 842 843 844 844 845 845 845 846 847 849 850 852 854 856 856
790 792 794 795 797 798 798 799 801 802 804 805 807 809 811 813 815 817 818 819 821 822 824 825 826 826 827 828 830 831 832 833 834 835 835 835 836 836 837 838 839 840 841 841 841 842 842 843 844 844 845 845 845 846 847 848 849 850 852 855 856 854
791 793 794 795 796 797 799 800 801 803 804 806 807 809 812 814 816 817 819 820 821 822 824 825 826 826 827 828 830 831 832 833 834 835 835 836 836 837 837 838 839 840 841 841 841 842 843 844 844 845 845 846 846 847 847 848 849 851 852 854 854 854
791 793 794 795 796 797 798 800 801 803 804 806 808 810 812 814 816 818 819 820 821 822 823 824 825 826 827 828 829 831 832 833 834 835 835 836 836 837 838 839 839 840 841 841 841 842 843 844 845 845 846 847 847 847 848 849 849 851 852 853 854 855
791 793 794 795 796 797 798 800 802 803 805 807 809 811 813 815 816 818 819 820 821 822 823 824 825 826 827 828 829 831 832 833 834 834 835 835 836 837 837 839 840 840 841 841 842 842 844 845 845 846 847 848 848 848 849 849 850 851 852 854 855 856
790 792 794 795 796 797 799 801 802 804 806 807 809 811 813 815 817 818 819 820 821 822 823 823 825 826 827 828 829 830 832 833 834 834 835 835 836 837 837 838 840 840 841 841 842 843 844 845 846 847 848 849 849 849 850 850 851 851 852 854 855 856
790 792 793 794 796 798 799 801 803 805 806 808 810 811 813 815 816 817 819 820 821 822 822 823 824 825 827 828 829 830 831 833 834 835 835 836 837 837 838 839 840 840 841 841 843 844 845 845 846 848 849 850 850 851 851 852 852 852 853 854 855 856
789 792 793 795 796 798 800 801 803 805 806 808 810 811 813 814 816 817 818 819 820 821 822 823 824 825 827 828 829 830 832 833 834 835 836 837 837 838 838 839 840 840 841 841 843 844 845 846 847 848 849 850 851 852 853 853 853 854 854 855 856 856
790 792 793 795 796 798 800 802 803 805 807 809 810 812 814 815 816 817 818 819 820 821 822 823 824 825 827 828 829 831 832 833 834 835 836 837 837 838 838 839 840 840 840 842 843 845 846 846 847 848 849 851 852 853 854 855 855 855 855 856 857 857
790 792 793 795 797 799 801 803 804 806 807 809 811 813 814 815 816 817 818 819 820 821 822 823 824 826 827 829 830 831 832 833 834 835 836 837 837 838 838 839 840 840 840 841 843 844 846 846 847 848 849 852 854 855 856 856 856 856 856 857 857 858
790 792 793 795 797 799 801 803 804 806 808 810 811 813 814 815 816 817 818 819 820 821 822 823 825 826 828 829 830 831 832 833 834 835 836 837 837 838 838 839 839 840 840 841 842 844 845 846 847 847 848 851 853 855 857 857 857 858 858 858 858 859
789 791 793 795 797 798 800 801 803 805 808 810 811 812 813 815 816 817 818 820 821 822 823 824 825 827 828 829 830 831 832 834 834 835 836 837 837 838 838 838 839 840 841 842 842 843 844 845 846 847 848 848 850 852 854 855 857 859 859 859 859 860
788 790 792 794 796 797 798 800 801 804 807 809 811 812 814 815 816 818 819 820 821 823 824 825 826 827 828 829 831 832 833 834 834 835 836 836 837 837 838 838 839 840 841 842 843 843 843 844 846 847 848 848 849 849 851 853 855 857 859 860 861 861
788 790 792 794 795 797 798 800 801 802 806 809 810 812 814 815 817 818 819 821 822 823 824 825 826 827 828 830 831 832 833 834 835 835 836 836 837 837 838 838 838 839 840 841 842 843 843 844 844 846 847 848 849 850 850 851 852 854 857 861 862 863
788 790 792 794 795 797 799 800 800 802 806 808 810 812 814 816 817 818 819 821 822 824 825 826 827 828 829 830 831 832 833 834 835 835 836 836 837 837 838 838 838 839 839 841 842 843 843 843 843 845 847 848 849 850 851 852 853 853 855 859 863 864
789 790 792 793 794 796 798 799 801 803 805 807 810 812 814 816 817 818 819 821 823 824 825 826 827 828 830 831 832 833 834 835 835 836 836 837 837 838 838 838 839 839 839 840 841 842 843 843 843 844 846 848 848 849 851 852 854 854 856 858 862 864
788 790 791 792 793 795 798 800 802 804 805 806 809 811 813 815 816 818 819 821 823 824 825 827 828 829 830 831 832 833 834 835 835 836 837 837 838 838 838 838 839 839 839 840 840 841 842 843 843 844 846 847 847 848 849 850 852 853 854 857 860 864
788 789 791 792 794 796 798 800 802 805 805 806 808 810 813 815 816 818 819 821 823 824 826 827 828 829 830 831 832 833 834 835 836 837 837 838 838 838 839 839 839 839 840 840 840 841 842 843 843 844 845 846 847 848 848 849 851 852 853 856 858 863
788 789 791 793 796 797 799 801 803 804 805 807 808 811 813 815 817 818 820 821 823 825 826 827 828 829 830 831 832 833 834 835 836 837 838 838 839 839 839 839 840 840 840 840 841 841 842 843 843 844 845 846 847 848 849 849 851 852 854 856 857 861
787 790 792 794 796 797 799 800 802 804 805 807 809 811 814 815 817 819 820 822 823 825 826 827 828 829 830 831 832 833 834 835 836 837 838 839 839 840 840 840 841 841 841 841 841 842 842 843 844 845 845 847 848 849 849 850 851 852 853 855 857 859
787 791 792 794 795 796 798 800 802 804 805 807 809 812 814 815 817 818 820 821 823 824 826 827 828 829 830 831 832 833 834 835 836 837 838 839 840 840 841 841 841 841 842 842 842 842 843 844 845 846 846 847 848 849 850 851 852 853 853 854 856 857
789 791 792 792 793 794 797 799 802 804 806 808 810 812 814 815 817 818 819 821 822 824 825 826 827 828 829 830 831 833 833 834 836 837 838 839 840 841 842 842 842 842 842 842 843 843 844 845 845 846 847 848 849 849 851 851 852 854 854 855 856 856
792 792 791 791 792 794 797 800 803 805 806 808 810 811 813 814 816 818 819 821 822 824 825 826 827 828 829 830 832 833 833 834 835 837 838 839 840 841 842 843 843 843 843 843 844 844 845 845 845 846 847 848 849 850 851 852 853 854 855 856 857 857